Precipitable_Water
1.27 1.28 1.32 1.32 1.35 1.36 1.37 1.38 1.37 1.39 1.38 1.41 1.42 1.45 1.45 1.45 1.49 1.49 1.61 1.60 1.54 1.43 1.36 1.33 1.35 1.32 1.27 1.32 1.35 1.33 1.31 1.32 1.40 1.42 1.37 1.32 1.33 1.32 1.34 1.34 1.32 1.33 1.32 1.34 1.28 1.18 1.14 1.09 1.13 1.20 1.23 1.19 1.19 1.20 1.22 1.24 1.25 1.22 1.19 1.18 1.16 1.19 1.15 1.07 0.93 0.86 0.88 1.00 1.03 1.01 1.04 1.04 1.00 1.05 1.04 1.08 1.09 1.11 1.16 1.17 1.16 1.13 1.14 1.16 1.15
1.27 1.30 1.32 1.36 1.37 1.38 1.39 1.41 1.40 1.39 1.38 1.38 1.40 1.45 1.48 1.50 1.52 1.53 1.53 1.54 1.47 1.40 1.33 1.30 1.29 1.26 1.25 1.28 1.30 1.34 1.34 1.36 1.42 1.40 1.31 1.28 1.29 1.33 1.29 1.31 1.37 1.38 1.35 1.29 1.30 1.26 1.19 1.16 1.19 1.22 1.25 1.21 1.19 1.18 1.21 1.22 1.20 1.18 1.16 1.14 1.09 1.07 1.13 1.01 0.91 0.86 0.82 0.92 0.96 1.05 1.04 1.08 0.99 1.06 1.02 1.04 1.07 1.13 1.11 1.11 1.12 1.16 1.13 1.11 1.11
1.32 1.35 1.36 1.36 1.39 1.43 1.45 1.46 1.44 1.41 1.37 1.39 1.38 1.43 1.48 1.50 1.53 1.45 1.48 1.48 1.47 1.42 1.38 1.33 1.30 1.24 1.21 1.25 1.24 1.28 1.32 1.37 1.39 1.35 1.27 1.26 1.26 1.28 1.29 1.31 1.38 1.39 1.35 1.30 1.30 1.28 1.21 1.18 1.18 1.23 1.27 1.20 1.18 1.21 1.24 1.24 1.24 1.19 1.16 1.16 1.09 1.08 1.08 1.07 1.02 0.95 0.92 0.93 1.04 1.00 0.97 0.99 1.00 1.02 1.06 1.07 1.08 1.10 1.10 1.12 1.14 1.22 1.25 1.19 1.13
1.37 1.39 1.38 1.37 1.39 1.43 1.45 1.52 1.52 1.50 1.44 1.44 1.44 1.46 1.51 1.54 1.51 1.44 1.45 1.46 1.41 1.40 1.42 1.36 1.31 1.23 1.14 1.25 1.26 1.22 1.24 1.32 1.35 1.33 1.31 1.28 1.27 1.28 1.30 1.33 1.38 1.40 1.38 1.34 1.32 1.30 1.24 1.20 1.20 1.20 1.20 1.16 1.19 1.24 1.26 1.24 1.21 1.19 1.16 1.17 1.12 1.07 1.10 1.13 1.16 1.10 1.01 0.93 0.95 0.95 1.00 1.00 0.99 1.04 1.09 1.11 1.09 1.09 1.15 1.20 1.21 1.23 1.25 1.22 1.21
1.38 1.42 1.42 1.39 1.40 1.42 1.45 1.53 1.56 1.57 1.57 1.55 1.52 1.51 1.50 1.53 1.50 1.45 1.48 1.44 1.40 1.37 1.38 1.38 1.32 1.23 1.12 1.22 1.22 1.15 1.17 1.27 1.29 1.29 1.30 1.29 1.26 1.26 1.29 1.33 1.36 1.39 1.37 1.33 1.28 1.28 1.23 1.20 1.20 1.19 1.19 1.17 1.19 1.21 1.24 1.24 1.23 1.20 1.17 1.15 1.13 1.13 1.11 1.09 1.07 1.07 1.04 0.97 0.93 0.99 1.04 1.03 1.08 1.09 1.10 1.08 1.12 1.13 1.18 1.18 1.18 1.19 1.20 1.22 1.22
1.35 1.44 1.47 1.44 1.45 1.45 1.48 1.52 1.56 1.59 1.62 1.64 1.64 1.61 1.53 1.48 1.50 1.49 1.46 1.38 1.38 1.35 1.28 1.28 1.28 1.20 1.15 1.17 1.14 1.09 1.14 1.24 1.24 1.21 1.21 1.21 1.23 1.26 1.31 1.31 1.34 1.38 1.37 1.36 1.34 1.35 1.34 1.30 1.23 1.19 1.19 1.18 1.20 1.22 1.23 1.20 1.20 1.19 1.16 1.16 1.17 1.18 1.13 1.09 1.08 1.05 1.04 1.01 1.01 0.99 1.07 1.10 1.08 1.10 1.16 1.17 1.11 1.06 1.04 1.08 1.14 1.17 1.16 1.14 1.16
1.33 1.43 1.49 1.50 1.50 1.51 1.52 1.53 1.58 1.63 1.66 1.67 1.71 1.70 1.60 1.51 1.53 1.53 1.43 1.34 1.34 1.30 1.28 1.26 1.26 1.24 1.19 1.17 1.13 1.13 1.21 1.27 1.25 1.24 1.21 1.19 1.20 1.21 1.27 1.32 1.34 1.38 1.37 1.35 1.37 1.38 1.37 1.32 1.24 1.23 1.22 1.23 1.21 1.21 1.25 1.27 1.26 1.24 1.23 1.20 1.20 1.18 1.13 1.09 1.08 1.08 1.07 1.07 1.06 1.06 1.08 1.14 1.17 1.05 1.15 1.20 1.19 1.10 1.01 0.99 1.01 1.11 1.11 1.11 1.10
1.37 1.43 1.50 1.54 1.56 1.57 1.60 1.64 1.66 1.69 1.72 1.73 1.71 1.69 1.63 1.59 1.65 1.71 1.62 1.48 1.40 1.36 1.31 1.26 1.26 1.28 1.25 1.17 1.11 1.19 1.26 1.26 1.23 1.24 1.21 1.20 1.19 1.19 1.28 1.35 1.36 1.36 1.31 1.30 1.38 1.39 1.36 1.31 1.27 1.28 1.30 1.30 1.28 1.30 1.32 1.30 1.32 1.30 1.30 1.28 1.25 1.21 1.14 1.08 1.04 1.05 1.03 0.99 0.99 1.00 1.05 1.01 1.02 1.06 1.15 1.15 1.09 1.13 1.08 1.02 0.95 0.97 1.02 1.10 1.12
1.41 1.43 1.50 1.52 1.56 1.63 1.70 1.75 1.77 1.77 1.76 1.75 1.74 1.70 1.66 1.67 1.73 1.75 1.69 1.63 1.59 1.51 1.43 1.35 1.26 1.26 1.29 1.23 1.16 1.21 1.22 1.17 1.19 1.19 1.18 1.22 1.23 1.22 1.30 1.36 1.38 1.35 1.33 1.35 1.40 1.39 1.30 1.28 1.30 1.34 1.35 1.34 1.34 1.34 1.34 1.35 1.33 1.27 1.26 1.26 1.25 1.23 1.17 1.11 1.05 0.99 0.95 0.92 0.88 0.90 0.89 0.90 0.93 0.97 0.98 0.98 0.99 1.03 1.03 1.03 1.00 1.04 1.05 1.04 1.08
1.41 1.41 1.44 1.51 1.60 1.66 1.70 1.74 1.74 1.74 1.74 1.71 1.71 1.73 1.70 1.67 1.69 1.70 1.69 1.69 1.71 1.70 1.62 1.54 1.47 1.37 1.34 1.33 1.28 1.23 1.17 1.17 1.20 1.20 1.21 1.26 1.27 1.26 1.29 1.38 1.42 1.44 1.41 1.39 1.36 1.31 1.33 1.32 1.31 1.31 1.29 1.28 1.29 1.31 1.30 1.31 1.33 1.32 1.31 1.30 1.28 1.25 1.19 1.10 1.00 0.92 0.87 0.82 0.81 0.84 0.83 0.82 0.85 0.90 0.92 0.98 1.04 1.05 1.01 1.03 0.98 0.98 0.99 0.96 0.97
1.36 1.37 1.42 1.52 1.61 1.66 1.67 1.69 1.72 1.67 1.70 1.70 1.69 1.68 1.66 1.66 1.66 1.68 1.74 1.75 1.76 1.78 1.74 1.65 1.58 1.51 1.47 1.46 1.38 1.23 1.14 1.17 1.22 1.21 1.23 1.26 1.26 1.28 1.34 1.44 1.52 1.52 1.43 1.34 1.28 1.27 1.31 1.36 1.33 1.32 1.31 1.30 1.33 1.33 1.34 1.36 1.39 1.41 1.44 1.43 1.37 1.29 1.19 1.08 0.97 0.91 0.86 0.84 0.84 0.85 0.84 0.84 0.87 0.91 0.90 0.92 0.95 0.98 0.98 0.96 0.94 0.92 0.87 0.79 0.73
1.34 1.38 1.44 1.53 1.60 1.64 1.62 1.67 1.66 1.64 1.66 1.64 1.64 1.67 1.69 1.70 1.69 1.70 1.72 1.70 1.71 1.72 1.67 1.64 1.62 1.62 1.59 1.53 1.38 1.23 1.18 1.21 1.26 1.25 1.25 1.25 1.28 1.36 1.44 1.49 1.57 1.57 1.45 1.35 1.32 1.34 1.36 1.34 1.34 1.32 1.35 1.45 1.46 1.45 1.45 1.46 1.49 1.52 1.51 1.47 1.40 1.32 1.22 1.07 0.94 0.88 0.87 0.86 0.85 0.87 0.87 0.85 0.88 0.92 0.91 0.91 0.94 0.96 0.96 0.94 0.89 0.84 0.80 0.78 0.77
1.36 1.39 1.48 1.54 1.57 1.62 1.60 1.62 1.61 1.61 1.62 1.64 1.67 1.68 1.67 1.69 1.67 1.63 1.59 1.62 1.65 1.61 1.59 1.60 1.64 1.64 1.58 1.48 1.38 1.30 1.21 1.26 1.34 1.34 1.30 1.27 1.28 1.32 1.38 1.43 1.52 1.44 1.34 1.34 1.38 1.41 1.38 1.31 1.28 1.33 1.43 1.49 1.54 1.48 1.46 1.46 1.49 1.50 1.52 1.51 1.40 1.29 1.18 1.07 1.02 0.99 0.99 0.93 0.91 0.90 0.91 0.93 0.91 0.93 0.97 0.98 1.00 0.92 0.92 0.87 0.85 0.83 0.81 0.75 0.72
1.39 1.42 1.48 1.53 1.55 1.58 1.56 1.55 1.56 1.59 1.63 1.65 1.62 1.56 1.50 1.44 1.45 1.51 1.55 1.61 1.64 1.62 1.61 1.62 1.59 1.55 1.51 1.46 1.42 1.38 1.37 1.39 1.42 1.39 1.30 1.26 1.32 1.35 1.36 1.48 1.48 1.41 1.32 1.34 1.43 1.45 1.38 1.38 1.37 1.35 1.43 1.46 1.43 1.42 1.45 1.46 1.53 1.54 1.48 1.46 1.38 1.22 1.09 1.01 1.02 1.03 1.06 1.02 0.97 0.92 0.97 1.03 0.98 0.98 1.02 1.03 0.94 0.86 0.84 0.79 0.80 0.76 0.73 0.70 0.75
1.38 1.42 1.45 1.49 1.52 1.52 1.53 1.52 1.55 1.53 1.51 1.48 1.42 1.39 1.42 1.44 1.45 1.50 1.52 1.55 1.58 1.58 1.56 1.52 1.51 1.49 1.48 1.46 1.39 1.36 1.43 1.54 1.53 1.47 1.32 1.28 1.33 1.37 1.39 1.47 1.48 1.44 1.36 1.32 1.42 1.49 1.51 1.51 1.42 1.41 1.42 1.42 1.43 1.40 1.42 1.51 1.50 1.44 1.39 1.30 1.16 1.02 0.96 0.94 1.01 1.09 1.10 1.08 1.05 1.02 1.03 1.04 1.01 0.98 0.96 0.95 0.91 0.88 0.86 0.82 0.81 0.79 0.78 0.81 0.80
1.36 1.42 1.43 1.46 1.49 1.49 1.48 1.45 1.43 1.44 1.40 1.39 1.38 1.39 1.44 1.48 1.49 1.52 1.53 1.56 1.58 1.55 1.50 1.46 1.41 1.40 1.40 1.40 1.38 1.40 1.52 1.61 1.57 1.42 1.31 1.28 1.33 1.36 1.40 1.43 1.43 1.40 1.36 1.33 1.38 1.47 1.59 1.47 1.37 1.35 1.38 1.36 1.38 1.38 1.39 1.40 1.40 1.36 1.27 1.16 1.02 0.92 0.88 0.94 0.97 1.00 1.02 1.02 1.00 0.98 0.99 0.99 0.93 0.88 0.87 0.86 0.87 0.87 0.85 0.85 0.85 0.82 0.78 0.71 0.66
1.34 1.38 1.40 1.43 1.43 1.43 1.43 1.41 1.35 1.34 1.39 1.39 1.37 1.40 1.41 1.43 1.47 1.54 1.50 1.52 1.52 1.45 1.41 1.36 1.36 1.36 1.36 1.37 1.34 1.37 1.45 1.50 1.49 1.42 1.36 1.33 1.36 1.41 1.41 1.41 1.40 1.35 1.32 1.31 1.35 1.48 1.50 1.48 1.41 1.37 1.35 1.35 1.43 1.43 1.42 1.38 1.33 1.26 1.14 1.00 0.89 0.83 0.83 0.94 1.01 1.02 1.00 0.97 0.97 0.97 0.96 0.94 0.91 0.87 0.86 0.87 0.87 0.89 0.87 0.82 0.79 0.80 0.72 0.64 0.65
1.34 1.33 1.35 1.39 1.41 1.44 1.39 1.35 1.31 1.32 1.38 1.36 1.37 1.40 1.45 1.49 1.51 1.53 1.48 1.47 1.46 1.46 1.41 1.36 1.35 1.33 1.31 1.31 1.34 1.37 1.41 1.45 1.44 1.42 1.38 1.36 1.41 1.42 1.39 1.37 1.33 1.29 1.26 1.32 1.43 1.49 1.50 1.48 1.42 1.36 1.35 1.39 1.40 1.39 1.38 1.34 1.24 1.14 1.01 0.88 0.81 0.80 0.85 0.93 0.96 1.05 1.05 1.04 1.02 1.00 0.97 0.93 0.92 0.93 0.93 0.94 0.94 0.95 0.90 0.78 0.80 0.78 0.69 0.70 0.67
1.31 1.30 1.36 1.44 1.41 1.37 1.35 1.34 1.33 1.32 1.35 1.39 1.42 1.42 1.43 1.46 1.49 1.51 1.50 1.49 1.46 1.47 1.42 1.33 1.31 1.33 1.34 1.36 1.39 1.38 1.38 1.43 1.47 1.48 1.47 1.46 1.47 1.41 1.38 1.33 1.27 1.23 1.22 1.32 1.49 1.45 1.43 1.35 1.37 1.36 1.36 1.42 1.40 1.36 1.32 1.24 1.12 1.01 0.92 0.84 0.80 0.80 0.85 0.91 0.91 0.92 0.97 1.01 1.01 1.00 0.96 0.95 0.97 0.97 0.97 0.97 0.97 0.95 0.92 0.87 0.84 0.78 0.74 0.72 0.71
1.35 1.38 1.41 1.39 1.35 1.31 1.32 1.32 1.34 1.36 1.38 1.42 1.45 1.45 1.48 1.47 1.45 1.45 1.47 1.47 1.44 1.41 1.36 1.31 1.28 1.30 1.35 1.37 1.40 1.42 1.41 1.43 1.48 1.48 1.48 1.52 1.45 1.40 1.36 1.29 1.22 1.19 1.27 1.31 1.35 1.40 1.40 1.36 1.32 1.32 1.35 1.36 1.33 1.26 1.19 1.11 1.02 0.94 0.89 0.84 0.83 0.81 0.92 0.94 0.95 0.96 0.93 0.89 0.87 0.89 0.90 0.95 0.96 0.96 0.94 0.90 0.89 0.91 0.89 0.89 0.86 0.81 0.78 0.74 0.63
1.37 1.35 1.35 1.34 1.32 1.31 1.35 1.36 1.37 1.40 1.43 1.43 1.45 1.45 1.49 1.46 1.44 1.43 1.43 1.42 1.39 1.34 1.29 1.29 1.29 1.32 1.36 1.39 1.41 1.45 1.49 1.50 1.56 1.55 1.54 1.50 1.45 1.43 1.40 1.33 1.27 1.23 1.34 1.36 1.38 1.33 1.29 1.31 1.37 1.41 1.37 1.28 1.22 1.17 1.10 1.05 0.98 0.91 0.88 0.85 0.88 0.90 0.92 0.89 0.90 0.92 0.91 0.89 0.88 0.92 0.93 0.90 0.88 0.88 0.85 0.80 0.79 0.79 0.79 0.80 0.81 0.75 0.68 0.63 0.59
1.37 1.37 1.38 1.35 1.36 1.36 1.37 1.40 1.42 1.41 1.46 1.47 1.43 1.44 1.49 1.50 1.47 1.43 1.41 1.36 1.32 1.28 1.28 1.29 1.30 1.32 1.37 1.42 1.45 1.51 1.57 1.58 1.61 1.53 1.52 1.49 1.46 1.45 1.42 1.38 1.35 1.29 1.28 1.32 1.30 1.26 1.28 1.34 1.38 1.37 1.26 1.20 1.16 1.10 1.05 0.99 0.93 0.89 0.89 0.89 0.89 0.89 0.90 0.92 0.92 0.91 0.89 0.89 0.89 0.87 0.85 0.83 0.83 0.82 0.79 0.76 0.74 0.75 0.76 0.75 0.72 0.69 0.67 0.62 0.54
1.35 1.35 1.36 1.37 1.38 1.39 1.40 1.38 1.38 1.42 1.45 1.48 1.47 1.45 1.48 1.45 1.43 1.42 1.38 1.32 1.27 1.23 1.23 1.27 1.29 1.31 1.37 1.44 1.51 1.58 1.66 1.64 1.67 1.62 1.55 1.52 1.49 1.47 1.42 1.39 1.41 1.37 1.28 1.20 1.24 1.30 1.37 1.39 1.37 1.25 1.20 1.17 1.11 1.07 1.01 0.95 0.91 0.90 0.90 0.89 0.90 0.93 0.94 0.91 0.89 0.86 0.85 0.85 0.85 0.83 0.83 0.83 0.80 0.75 0.73 0.71 0.73 0.74 0.73 0.69 0.65 0.60 0.55 0.56 0.59
1.34 1.32 1.35 1.40 1.43 1.43 1.42 1.39 1.40 1.43 1.45 1.48 1.50 1.43 1.41 1.41 1.39 1.38 1.36 1.30 1.24 1.20 1.22 1.27 1.29 1.32 1.36 1.43 1.49 1.56 1.63 1.69 1.66 1.58 1.53 1.50 1.50 1.47 1.42 1.41 1.40 1.34 1.28 1.27 1.33 1.36 1.35 1.31 1.24 1.20 1.18 1.14 1.09 1.02 0.97 0.93 0.91 0.91 0.91 0.92 0.93 0.93 0.91 0.87 0.85 0.85 0.87 0.85 0.82 0.81 0.81 0.80 0.75 0.72 0.73 0.74 0.73 0.70 0.68 0.62 0.58 0.61 0.64 0.65 0.64
1.32 1.36 1.35 1.37 1.40 1.41 1.38 1.39 1.40 1.46 1.50 1.49 1.41 1.38 1.36 1.37 1.34 1.36 1.33 1.28 1.24 1.20 1.22 1.27 1.30 1.34 1.40 1.40 1.44 1.52 1.60 1.60 1.57 1.54 1.52 1.51 1.50 1.46 1.41 1.37 1.32 1.28 1.27 1.35 1.37 1.31 1.26 1.24 1.21 1.18 1.14 1.09 1.04 0.99 0.94 0.92 0.91 0.91 0.93 0.93 0.92 0.89 0.88 0.87 0.85 0.87 0.83 0.82 0.82 0.81 0.79 0.76 0.73 0.72 0.74 0.74 0.71 0.64 0.60 0.63 0.64 0.63 0.63 0.63 0.61
1.37 1.34 1.31 1.33 1.37 1.37 1.37 1.40 1.42 1.46 1.43 1.45 1.44 1.40 1.37 1.37 1.35 1.34 1.30 1.28 1.25 1.22 1.24 1.28 1.32 1.36 1.36 1.41 1.42 1.49 1.55 1.56 1.52 1.48 1.44 1.47 1.45 1.42 1.37 1.33 1.33 1.35 1.35 1.29 1.23 1.18 1.18 1.19 1.16 1.12 1.08 1.04 1.00 0.95 0.91 0.93 0.95 0.96 0.93 0.92 0.90 0.86 0.87 0.88 0.87 0.85 0.83 0.84 0.82 0.77 0.74 0.73 0.73 0.74 0.71 0.66 0.64 0.64 0.61 0.57 0.55 0.52 0.52 0.50 0.47
1.32 1.31 1.33 1.36 1.37 1.37 1.34 1.37 1.38 1.40 1.39 1.42 1.44 1.44 1.42 1.39 1.36 1.31 1.29 1.24 1.22 1.24 1.25 1.29 1.33 1.37 1.37 1.40 1.47 1.50 1.51 1.50 1.47 1.43 1.39 1.36 1.30 1.31 1.35 1.34 1.33 1.29 1.23 1.18 1.17 1.20 1.19 1.16 1.13 1.09 1.05 0.99 0.95 0.93 0.94 0.96 0.98 0.99 0.95 0.92 0.91 0.89 0.88 0.89 0.85 0.84 0.84 0.81 0.78 0.77 0.78 0.77 0.75 0.70 0.68 0.65 0.60 0.57 0.56 0.51 0.47 0.44 0.42 0.42 0.44
1.28 1.28 1.32 1.36 1.36 1.39 1.38 1.36 1.37 1.37 1.39 1.40 1.39 1.39 1.40 1.38 1.33 1.29 1.27 1.26 1.24 1.23 1.27 1.33 1.33 1.37 1.38 1.44 1.49 1.49 1.46 1.45 1.41 1.35 1.30 1.26 1.25 1.27 1.28 1.25 1.20 1.17 1.13 1.16 1.19 1.18 1.13 1.09 1.06 1.02 0.98 0.95 0.94 0.94 0.94 0.96 0.97 0.97 0.94 0.93 0.92 0.92 0.89 0.86 0.86 0.86 0.84 0.84 0.84 0.83 0.79 0.75 0.70 0.66 0.61 0.55 0.51 0.50 0.50 0.46 0.42 0.38 0.40 0.43 0.43
1.32 1.30 1.33 1.35 1.36 1.40 1.40 1.39 1.41 1.39 1.38 1.39 1.38 1.37 1.35 1.35 1.33 1.33 1.36 1.40 1.39 1.33 1.34 1.36 1.43 1.45 1.47 1.47 1.46 1.49 1.43 1.35 1.35 1.36 1.33 1.28 1.23 1.20 1.17 1.16 1.14 1.13 1.15 1.16 1.15 1.14 1.09 1.06 1.02 0.97 0.98 0.96 0.96 0.95 0.95 0.95 0.93 0.94 0.93 0.92 0.90 0.89 0.86 0.82 0.79 0.79 0.80 0.80 0.78 0.75 0.70 0.69 0.65 0.59 0.53 0.48 0.46 0.45 0.45 0.41 0.39 0.38 0.40 0.43 0.43
1.30 1.30 1.33 1.35 1.35 1.37 1.38 1.38 1.42 1.40 1.37 1.34 1.31 1.31 1.35 1.35 1.35 1.35 1.32 1.36 1.39 1.46 1.49 1.46 1.49 1.51 1.46 1.49 1.49 1.40 1.37 1.41 1.41 1.38 1.32 1.25 1.19 1.17 1.16 1.14 1.14 1.15 1.15 1.14 1.11 1.08 1.06 0.99 0.96 0.96 0.96 0.97 0.97 0.93 0.91 0.91 0.90 0.89 0.91 0.91 0.88 0.85 0.81 0.80 0.80 0.78 0.77 0.76 0.74 0.70 0.68 0.65 0.57 0.51 0.46 0.43 0.41 0.40 0.40 0.38 0.37 0.39 0.38 0.38 0.37
1.30 1.32 1.31 1.32 1.33 1.35 1.36 1.36 1.38 1.36 1.33 1.29 1.27 1.22 1.21 1.26 1.30 1.33 1.37 1.38 1.41 1.43 1.46 1.50 1.51 1.50 1.48 1.40 1.45 1.47 1.44 1.42 1.34 1.26 1.23 1.21 1.18 1.14 1.13 1.13 1.13 1.13 1.13 1.10 1.07 1.00 0.96 0.93 0.91 0.91 0.91 0.93 0.93 0.91 0.88 0.84 0.82 0.82 0.82 0.83 0.82 0.83 0.83 0.79 0.76 0.75 0.75 0.74 0.72 0.70 0.67 0.60 0.50 0.46 0.43 0.39 0.35 0.35 0.37 0.40 0.39 0.38 0.37 0.35 0.34
1.29 1.27 1.35 1.36 1.32 1.31 1.34 1.34 1.33 1.29 1.26 1.24 1.21 1.19 1.18 1.17 1.23 1.31 1.37 1.40 1.43 1.44 1.45 1.46 1.47 1.45 1.42 1.40 1.35 1.32 1.32 1.29 1.23 1.19 1.17 1.15 1.12 1.10 1.11 1.10 1.10 1.11 1.11 1.11 1.03 0.98 0.94 0.92 0.94 0.95 0.95 0.92 0.88 0.86 0.84 0.83 0.82 0.81 0.80 0.79 0.80 0.81 0.79 0.76 0.77 0.77 0.76 0.74 0.73 0.69 0.58 0.51 0.48 0.44 0.39 0.34 0.34 0.36 0.37 0.36 0.36 0.37 0.36 0.35 0.34
1.29 1.32 1.34 1.36 1.31 1.29 1.31 1.27 1.26 1.23 1.18 1.19 1.19 1.20 1.18 1.17 1.15 1.19 1.31 1.39 1.42 1.42 1.41 1.41 1.40 1.39 1.37 1.37 1.33 1.30 1.26 1.24 1.22 1.17 1.12 1.08 1.08 1.08 1.08 1.09 1.11 1.12 1.12 1.06 0.97 0.92 0.94 0.95 0.94 0.92 0.89 0.85 0.83 0.83 0.82 0.83 0.83 0.83 0.82 0.80 0.79 0.79 0.79 0.79 0.80 0.78 0.77 0.76 0.72 0.62 0.56 0.49 0.46 0.40 0.34 0.34 0.35 0.35 0.35 0.36 0.37 0.37 0.36 0.33 0.32
1.37 1.36 1.32 1.26 1.23 1.20 1.18 1.19 1.18 1.17 1.16 1.15 1.16 1.16 1.18 1.17 1.16 1.15 1.13 1.19 1.29 1.36 1.38 1.38 1.37 1.36 1.33 1.30 1.30 1.24 1.21 1.19 1.13 1.09 1.07 1.07 1.07 1.08 1.09 1.10 1.11 1.10 1.05 0.98 0.94 0.93 0.93 0.90 0.87 0.86 0.86 0.86 0.86 0.86 0.85 0.84 0.83 0.82 0.81 0.80 0.78 0.78 0.78 0.79 0.79 0.78 0.75 0.70 0.63 0.55 0.49 0.46 0.41 0.34 0.34 0.35 0.36 0.36 0.35 0.36 0.37 0.37 0.34 0.31 0.31
1.35 1.29 1.23 1.19 1.16 1.14 1.10 1.07 1.07 1.09 1.13 1.15 1.15 1.14 1.15 1.16 1.16 1.10 1.08 1.10 1.12 1.14 1.17 1.22 1.25 1.26 1.23 1.20 1.18 1.16 1.10 1.06 1.04 1.04 1.05 1.06 1.08 1.10 1.10 1.05 0.99 0.98 0.97 0.95 0.93 0.91 0.89 0.89 0.88 0.89 0.89 0.87 0.87 0.87 0.86 0.85 0.83 0.81 0.79 0.77 0.76 0.75 0.75 0.75 0.74 0.72 0.69 0.67 0.58 0.50 0.45 0.39 0.36 0.36 0.35 0.34 0.35 0.34 0.35 0.36 0.37 0.35 0.33 0.33 0.33
1.22 1.17 1.15 1.13 1.10 1.08 1.07 1.07 1.08 1.06 1.10 1.14 1.12 1.07 1.07 1.06 1.05 1.04 1.04 1.05 1.05 1.04 1.04 1.06 1.09 1.13 1.14 1.12 1.09 1.06 1.03 1.02 1.02 1.03 1.05 1.06 1.07 1.05 0.98 0.95 0.95 0.93 0.91 0.90 0.87 0.87 0.89 0.89 0.90 0.90 0.90 0.89 0.89 0.87 0.86 0.82 0.80 0.78 0.77 0.75 0.73 0.73 0.73 0.72 0.71 0.68 0.65 0.58 0.48 0.43 0.40 0.39 0.37 0.36 0.36 0.35 0.35 0.34 0.36 0.37 0.36 0.35 0.35 0.35 0.33
1.16 1.13 1.13 1.17 1.16 1.12 1.09 1.09 1.08 1.08 1.06 1.05 1.02 1.03 1.04 1.04 1.04 1.05 1.06 1.07 1.08 1.06 1.01 1.02 1.02 1.00 1.01 1.01 1.01 1.00 1.00 1.01 1.01 1.01 1.02 1.02 1.03 1.01 0.99 0.99 0.96 0.96 0.93 0.90 0.88 0.87 0.87 0.89 0.89 0.88 0.87 0.85 0.84 0.83 0.81 0.78 0.77 0.76 0.75 0.73 0.73 0.73 0.72 0.72 0.68 0.61 0.53 0.44 0.41 0.40 0.39 0.37 0.36 0.36 0.35 0.34 0.33 0.35 0.36 0.36 0.35 0.36 0.37 0.35 0.34
1.15 1.10 1.10 1.13 1.13 1.10 1.09 1.04 1.03 1.03 1.02 1.03 1.05 1.06 1.05 1.04 1.04 1.05 1.04 1.06 1.08 1.03 0.97 0.97 0.95 0.93 0.90 0.92 0.98 0.97 0.96 0.97 0.99 0.99 1.00 0.99 0.96 0.95 0.99 1.03 1.03 0.97 0.92 0.90 0.89 0.89 0.88 0.87 0.86 0.84 0.83 0.81 0.79 0.78 0.76 0.74 0.73 0.71 0.68 0.68 0.68 0.68 0.66 0.64 0.59 0.55 0.52 0.48 0.43 0.41 0.38 0.35 0.36 0.36 0.35 0.33 0.33 0.34 0.34 0.34 0.36 0.37 0.37 0.36 0.35
1.16 1.10 1.08 1.08 1.08 1.08 1.12 1.10 1.06 1.00 1.00 1.05 1.09 1.09 1.07 1.08 1.08 1.08 1.08 1.04 1.01 1.02 1.00 0.96 0.95 0.94 0.93 0.94 0.94 0.96 0.95 0.94 0.93 0.92 0.92 0.93 0.97 1.00 1.02 1.02 0.98 0.93 0.89 0.89 0.89 0.88 0.85 0.82 0.81 0.80 0.77 0.74 0.73 0.73 0.71 0.69 0.68 0.66 0.66 0.65 0.64 0.63 0.61 0.59 0.56 0.54 0.47 0.41 0.40 0.37 0.34 0.34 0.35 0.35 0.34 0.33 0.33 0.33 0.32 0.36 0.38 0.37 0.36 0.35 0.34
1.12 1.08 1.05 1.05 1.06 1.11 1.16 1.14 1.07 1.04 1.08 1.11 1.14 1.13 1.12 1.10 1.09 1.08 1.06 1.04 1.00 0.99 0.97 0.93 0.92 0.93 0.93 0.94 0.96 0.97 0.93 0.92 0.91 0.90 0.91 0.96 0.99 1.00 0.99 0.97 0.95 0.91 0.88 0.87 0.85 0.82 0.80 0.78 0.75 0.72 0.71 0.69 0.69 0.68 0.67 0.65 0.62 0.62 0.61 0.57 0.55 0.53 0.55 0.53 0.48 0.44 0.40 0.39 0.36 0.33 0.33 0.34 0.34 0.33 0.32 0.32 0.32 0.32 0.35 0.36 0.36 0.37 0.37 0.35 0.34
1.22 1.21 1.13 1.09 1.11 1.13 1.14 1.11 1.08 1.10 1.12 1.15 1.19 1.18 1.16 1.14 1.12 1.10 1.07 1.03 0.99 0.96 0.95 0.94 0.94 0.99 1.02 1.02 1.03 1.02 0.98 0.92 0.93 0.96 0.98 0.99 0.99 0.96 0.97 0.95 0.91 0.90 0.88 0.83 0.79 0.76 0.73 0.71 0.69 0.69 0.68 0.66 0.65 0.63 0.61 0.60 0.58 0.57 0.55 0.52 0.49 0.49 0.48 0.45 0.41 0.37 0.38 0.36 0.33 0.33 0.34 0.34 0.32 0.30 0.29 0.32 0.32 0.34 0.34 0.35 0.36 0.37 0.37 0.35 0.34
1.16 1.19 1.15 1.15 1.16 1.15 1.12 1.06 1.09 1.13 1.16 1.18 1.19 1.18 1.16 1.12 1.10 1.04 0.99 0.95 0.92 0.92 0.92 0.98 1.02 1.09 1.09 1.07 1.04 1.02 0.98 0.99 1.01 1.02 1.02 1.00 0.96 0.95 0.94 0.92 0.89 0.87 0.83 0.79 0.76 0.73 0.71 0.66 0.60 0.57 0.58 0.59 0.60 0.60 0.59 0.58 0.57 0.54 0.50 0.45 0.44 0.44 0.42 0.40 0.38 0.39 0.35 0.33 0.33 0.34 0.34 0.31 0.29 0.31 0.32 0.32 0.33 0.32 0.31 0.33 0.35 0.36 0.36 0.34 0.35
1.20 1.26 1.20 1.18 1.12 1.10 1.08 1.10 1.14 1.15 1.17 1.17 1.17 1.17 1.12 1.04 0.97 0.92 0.92 0.93 0.97 0.98 1.00 1.03 1.08 1.08 1.08 1.06 1.03 0.99 0.97 1.01 1.04 1.02 1.00 0.96 0.93 0.92 0.90 0.86 0.84 0.81 0.77 0.73 0.69 0.65 0.63 0.61 0.60 0.59 0.59 0.59 0.59 0.58 0.58 0.57 0.55 0.49 0.43 0.39 0.39 0.39 0.37 0.36 0.35 0.34 0.34 0.34 0.33 0.33 0.30 0.31 0.31 0.30 0.31 0.32 0.32 0.30 0.30 0.34 0.34 0.35 0.34 0.34 0.34
1.20 1.17 1.17 1.15 1.13 1.11 1.11 1.12 1.13 1.18 1.15 1.12 1.10 1.06 1.01 0.95 0.96 0.96 0.99 1.01 1.04 1.02 1.03 1.04 1.06 1.06 1.03 1.03 1.03 1.00 0.97 0.97 1.00 0.98 0.96 0.94 0.92 0.89 0.86 0.83 0.80 0.75 0.69 0.66 0.65 0.64 0.62 0.59 0.58 0.59 0.60 0.58 0.58 0.58 0.56 0.55 0.51 0.44 0.37 0.34 0.33 0.31 0.29 0.27 0.27 0.32 0.34 0.32 0.30 0.28 0.30 0.30 0.29 0.29 0.30 0.31 0.29 0.28 0.31 0.33 0.33 0.34 0.34 0.33 0.33
1.12 1.12 1.10 1.08 1.08 1.06 1.07 1.07 1.08 1.07 1.05 1.00 0.98 0.97 0.92 0.94 0.96 0.99 1.03 1.04 1.02 1.01 1.02 1.02 1.03 1.05 1.04 1.02 1.00 0.96 0.93 0.91 0.92 0.91 0.90 0.89 0.88 0.85 0.83 0.79 0.73 0.70 0.68 0.64 0.62 0.62 0.60 0.58 0.57 0.56 0.55 0.56 0.56 0.56 0.54 0.50 0.44 0.38 0.33 0.31 0.29 0.27 0.27 0.32 0.33 0.32 0.30 0.29 0.30 0.30 0.29 0.28 0.28 0.29 0.29 0.30 0.30 0.30 0.31 0.32 0.33 0.34 0.33 0.31 0.31
1.13 1.11 1.08 1.11 1.09 1.09 1.09 1.08 1.06 1.02 0.95 0.92 0.92 0.91 0.92 0.96 1.02 1.03 1.03 1.04 1.05 1.04 1.04 1.03 1.03 1.04 1.02 1.00 0.95 0.89 0.87 0.89 0.91 0.93 0.90 0.84 0.81 0.81 0.80 0.76 0.71 0.67 0.64 0.62 0.60 0.60 0.59 0.56 0.54 0.54 0.54 0.53 0.54 0.53 0.51 0.45 0.39 0.34 0.31 0.29 0.26 0.25 0.25 0.26 0.28 0.30 0.30 0.30 0.30 0.30 0.29 0.29 0.28 0.29 0.30 0.31 0.31 0.31 0.32 0.34 0.34 0.32 0.30 0.30 0.31
1.12 1.11 1.08 1.09 1.11 1.07 1.05 1.02 0.96 0.92 0.92 0.93 0.92 0.94 0.98 1.04 1.05 1.05 1.04 1.05 1.03 1.01 0.97 0.99 0.99 0.99 0.97 0.94 0.94 0.92 0.92 0.92 0.91 0.88 0.83 0.81 0.79 0.78 0.76 0.72 0.68 0.65 0.64 0.61 0.59 0.58 0.57 0.56 0.54 0.53 0.53 0.53 0.53 0.51 0.47 0.40 0.37 0.34 0.32 0.28 0.27 0.27 0.28 0.27 0.25 0.23 0.23 0.27 0.30 0.30 0.28 0.26 0.28 0.31 0.32 0.32 0.31 0.33 0.33 0.35 0.34 0.31 0.29 0.29 0.32
1.06 1.04 1.03 1.02 1.03 1.01 1.01 0.99 0.98 0.93 0.95 0.95 0.96 0.99 1.03 1.05 1.02 0.99 0.98 0.96 0.94 0.93 0.92 0.92 0.90 0.92 0.93 0.94 0.96 0.95 0.94 0.90 0.86 0.83 0.81 0.80 0.79 0.78 0.74 0.70 0.67 0.65 0.63 0.61 0.59 0.58 0.57 0.56 0.54 0.53 0.52 0.52 0.50 0.45 0.43 0.38 0.34 0.32 0.30 0.30 0.32 0.28 0.24 0.24 0.23 0.24 0.25 0.24 0.23 0.22 0.24 0.28 0.31 0.33 0.33 0.31 0.32 0.34 0.34 0.35 0.34 0.30 0.28 0.30 0.31
1.00 1.01 1.01 1.02 1.00 1.00 0.98 0.98 0.94 0.91 0.96 0.98 0.98 0.97 0.97 0.98 0.93 0.91 0.90 0.89 0.85 0.80 0.75 0.75 0.76 0.78 0.79 0.81 0.83 0.83 0.82 0.81 0.79 0.80 0.80 0.79 0.77 0.75 0.73 0.70 0.67 0.65 0.63 0.61 0.59 0.58 0.58 0.57 0.55 0.52 0.50 0.51 0.52 0.48 0.43 0.39 0.35 0.33 0.31 0.32 0.29 0.28 0.25 0.23 0.23 0.23 0.22 0.22 0.23 0.26 0.29 0.30 0.31 0.32 0.33 0.33 0.34 0.35 0.34 0.33 0.31 0.29 0.29 0.32 0.31
0.99 0.98 0.98 0.97 0.98 0.98 0.99 0.98 0.98 0.99 0.99 0.97 0.93 0.90 0.88 0.85 0.83 0.81 0.78 0.77 0.76 0.76 0.76 0.74 0.71 0.70 0.68 0.67 0.66 0.67 0.68 0.69 0.70 0.72 0.74 0.76 0.76 0.76 0.73 0.70 0.68 0.65 0.63 0.61 0.59 0.58 0.58 0.57 0.55 0.54 0.53 0.51 0.51 0.50 0.45 0.40 0.36 0.35 0.36 0.31 0.29 0.27 0.25 0.24 0.24 0.24 0.24 0.24 0.24 0.24 0.25 0.26 0.30 0.34 0.34 0.35 0.36 0.34 0.31 0.28 0.28 0.30 0.30 0.32 0.30
0.96 0.98 0.98 0.98 0.99 1.01 1.02 0.99 0.98 0.97 0.94 0.89 0.83 0.79 0.78 0.76 0.77 0.77 0.75 0.73 0.71 0.70 0.67 0.65 0.63 0.63 0.63 0.63 0.63 0.63 0.63 0.65 0.66 0.68 0.72 0.74 0.74 0.73 0.71 0.70 0.70 0.69 0.68 0.65 0.61 0.60 0.59 0.59 0.56 0.54 0.54 0.52 0.50 0.50 0.48 0.42 0.39 0.37 0.32 0.30 0.29 0.27 0.25 0.25 0.25 0.26 0.24 0.22 0.22 0.22 0.24 0.27 0.30 0.34 0.36 0.36 0.36 0.32 0.26 0.25 0.30 0.30 0.30 0.31 0.30
Wind_Speed
21 21 21 21 21 21 20 20 20 20 20 20 20 19 19 19 19 19 19 19 19 19 19 19 20 20 20 20 20 21 20 20 20 20 18 17 16 16 16 16 16 16 17 17 17 17 17 17 17 18 18 18 18 19 19 19 19 19 20 21 21 21 21 21 22 22 21 21 22 23 24 25 26 27 28 28 29 30 30 31 32 32 32 32 33
21 21 21 21 21 21 21 20 20 20 20 20 20 20 20 20 20 20 20 20 20 21 21 21 21 21 21 21 21 21 21 21 21 19 18 17 17 17 17 17 17 17 17 17 17 17 18 18 18 19 19 19 19 19 19 20 20 20 21 21 21 21 21 22 22 22 22 23 24 25 26 27 27 28 29 29 29 30 31 31 32 32 32 33 34
21 21 21 21 21 21 21 21 20 20 20 20 21 21 21 21 21 21 21 21 21 22 22 22 22 22 22 22 22 22 22 22 22 21 19 18 18 18 18 18 18 18 17 17 17 18 18 19 19 19 19 19 20 20 20 20 20 20 21 21 21 21 22 22 23 23 24 25 26 27 27 28 29 30 31 31 31 31 31 32 32 32 32 34 34
21 21 21 21 21 21 21 21 20 21 20 21 21 21 21 21 21 22 22 21 22 22 23 22 22 23 23 24 23 23 23 23 23 22 21 20 20 20 19 19 19 19 18 18 18 18 19 19 20 20 20 20 20 20 20 20 20 21 21 22 22 22 22 23 24 25 26 27 27 28 29 30 30 31 32 33 33 32 32 32 32 32 33 33 34
20 21 21 21 21 21 21 21 21 21 21 21 21 22 21 21 21 22 22 22 22 23 23 23 23 23 24 25 24 24 24 23 22 21 21 21 21 21 21 20 20 20 19 19 19 19 19 20 20 20 20 20 20 20 20 20 20 21 22 22 23 23 23 24 25 27 28 29 29 30 30 31 31 32 32 33 33 33 33 33 33 33 33 33 33
20 20 20 21 21 21 21 20 21 21 21 21 21 22 22 21 21 22 23 23 23 24 24 24 25 25 25 25 25 25 25 24 23 22 22 22 22 22 22 22 21 21 20 20 20 20 20 20 20 20 20 20 20 19 20 20 21 22 23 23 23 24 25 26 27 28 29 30 30 31 31 32 32 32 33 32 33 33 33 34 33 33 33 33 33
20 20 20 20 20 20 20 20 20 21 21 21 21 21 22 22 22 22 23 24 25 25 25 25 25 26 26 26 26 26 25 25 25 25 24 23 23 23 23 23 22 21 21 20 21 20 20 21 21 21 21 20 20 20 20 21 22 23 23 24 25 25 26 27 28 29 29 30 31 31 32 32 32 32 32 32 33 33 33 33 33 32 32 32 33
20 20 19 19 19 20 20 20 20 20 21 21 22 22 23 23 23 23 24 25 26 26 26 26 26 27 27 27 27 26 26 25 26 26 26 25 24 23 24 24 23 22 21 21 21 21 21 21 21 21 21 21 21 21 21 22 23 23 24 25 26 27 28 29 29 30 30 31 32 32 32 32 32 32 32 32 32 32 32 32 32 32 32 32 33
20 20 19 19 19 20 19 19 19 19 20 20 21 22 23 23 23 24 25 26 26 27 27 27 27 27 27 27 28 28 27 27 26 27 26 26 25 24 24 25 24 22 21 21 22 22 21 21 21 22 21 21 21 22 23 24 25 25 26 27 28 29 30 30 30 30 31 32 32 33 33 33 32 32 32 32 32 32 32 32 32 32 32 33 33
20 20 20 19 19 19 19 18 18 19 19 20 20 21 22 23 24 24 25 26 27 27 27 27 27 27 28 28 28 28 28 27 27 27 27 27 26 25 25 26 24 23 22 22 23 23 22 22 22 22 22 22 23 23 25 26 26 27 27 28 29 30 31 31 31 31 32 32 32 33 33 32 32 32 32 32 32 32 32 31 31 32 32 33 33
20 21 20 20 19 19 19 18 18 19 19 20 20 21 21 22 23 24 24 26 27 28 28 28 27 27 28 28 27 27 28 28 27 28 28 27 27 27 26 26 25 24 24 23 23 23 22 22 22 22 23 23 24 24 25 27 27 28 29 29 29 30 30 31 31 32 32 32 33 33 33 32 32 32 32 32 32 32 31 32 32 32 32 33 33
21 21 20 20 20 19 19 19 19 19 19 20 20 21 21 22 23 23 25 26 27 28 29 28 28 27 27 27 27 27 27 27 28 28 28 28 28 27 27 26 26 25 24 23 23 23 22 22 22 22 23 23 24 25 26 27 28 29 29 29 29 30 30 31 31 31 32 33 34 33 32 32 32 32 32 32 31 31 32 32 33 33 33 34 34
21 21 20 20 20 19 19 19 19 19 19 20 20 21 21 22 22 23 25 26 27 27 28 28 27 26 26 26 26 26 26 26 27 28 28 28 28 28 27 27 26 25 24 23 23 23 23 22 22 23 23 23 24 26 27 28 29 29 29 29 30 31 31 31 32 32 33 33 33 33 32 32 32 32 32 32 32 32 33 33 34 34 34 35 35
21 21 21 20 20 19 19 19 18 18 19 20 21 21 22 22 22 23 24 25 26 27 27 27 27 27 26 26 26 25 25 26 26 27 27 27 28 28 28 27 26 24 24 24 23 23 23 23 22 23 24 25 26 27 28 28 29 29 30 31 32 32 32 32 33 33 33 33 33 33 32 32 32 32 32 32 32 33 34 34 34 35 36 36 36
21 21 21 21 20 19 19 19 19 19 19 20 20 21 21 21 22 23 24 25 26 26 26 26 27 27 26 26 26 25 25 25 25 26 27 27 27 27 27 27 25 24 24 24 24 24 24 23 23 24 26 27 28 28 29 30 30 31 32 32 33 33 33 33 33 33 33 32 32 32 32 32 32 32 33 33 34 34 35 35 35 36 36 36 36
22 22 21 21 20 20 19 19 19 19 19 19 20 20 21 22 23 23 24 25 26 26 26 26 26 26 26 26 26 25 25 25 25 25 26 26 26 26 26 26 25 25 25 25 26 25 25 25 25 26 27 28 28 29 30 31 31 32 33 33 33 34 33 33 32 32 32 32 32 32 32 32 33 34 34 34 35 35 35 35 35 35 35 35 34
22 22 22 21 21 20 19 19 19 19 19 20 20 21 22 22 23 23 24 25 26 25 25 25 26 26 26 26 26 26 26 25 25 25 25 25 25 26 26 25 25 25 25 26 26 25 25 25 26 27 28 28 29 30 31 31 32 33 33 33 34 34 33 33 32 32 31 31 32 32 33 33 34 34 34 34 35 34 34 33 33 34 34 33 33
23 23 23 22 21 20 20 20 20 20 20 21 21 22 22 23 23 24 25 25 26 25 24 24 24 25 25 26 27 26 25 25 25 25 25 25 25 25 25 24 25 25 26 26 26 25 25 26 27 28 28 29 30 30 31 32 32 32 33 33 34 33 33 32 32 31 31 31 31 32 33 33 33 33 34 34 34 33 33 33 33 33 33 32 31
23 23 23 22 21 21 21 21 21 21 22 22 22 23 23 23 24 25 25 26 25 24 24 23 23 23 23 24 25 26 26 26 25 25 25 24 24 24 24 24 25 25 26 26 25 25 25 26 28 29 29 30 30 31 32 32 32 32 32 33 33 33 32 32 31 31 31 32 32 32 32 32 32 33 32 33 33 33 33 33 32 32 31 31 31
23 23 23 22 22 22 21 22 22 22 22 23 23 23 23 24 24 25 25 25 25 24 23 23 22 22 23 24 24 26 26 26 26 26 25 24 24 24 24 24 25 25 26 26 26 26 27 28 29 29 30 30 31 31 31 31 32 32 32 32 33 33 32 32 32 32 33 33 33 32 32 32 32 32 32 32 32 32 32 31 31 31 31 31 32
23 23 22 22 22 22 22 22 22 22 22 23 23 23 24 25 25 25 25 25 24 23 22 22 22 23 23 24 24 25 26 26 25 25 24 24 23 24 24 24 25 25 25 25 26 27 28 29 29 29 29 30 30 31 30 31 32 32 32 32 33 33 33 33 33 33 33 33 32 31 31 31 31 31 31 31 31 31 31 30 30 30 31 32 32
24 23 22 22 22 22 21 21 21 22 22 22 22 23 24 25 25 24 25 24 23 22 22 22 22 22 22 23 24 24 24 23 23 22 22 23 23 24 24 24 25 25 25 25 26 27 28 29 29 29 29 29 29 30 30 31 32 32 33 33 33 33 33 33 32 32 32 31 30 30 29 30 30 30 30 30 30 30 29 29 30 30 31 31 32
23 22 22 22 22 21 21 22 22 22 22 22 23 23 24 24 24 24 24 23 22 22 22 21 21 21 22 23 23 23 22 20 19 20 21 22 23 23 24 24 24 24 24 25 27 28 28 28 28 28 28 29 29 30 31 31 32 32 33 33 33 32 32 32 32 32 31 30 29 29 29 29 30 30 30 30 29 29 29 30 30 31 31 30 30
23 23 22 22 22 21 21 22 22 22 22 23 23 24 24 23 23 23 23 22 21 21 21 21 21 22 22 22 22 22 21 19 19 20 21 22 23 23 24 23 23 23 24 25 27 27 26 26 27 28 28 28 29 30 31 32 32 32 32 32 32 31 31 31 31 31 30 29 28 28 28 29 29 29 29 29 29 29 30 30 30 29 29 29 29
23 23 24 23 22 22 22 22 22 22 23 23 23 24 23 23 23 23 23 22 22 22 22 22 22 22 21 21 22 22 20 20 21 21 22 22 23 23 23 23 23 24 25 26 26 25 25 26 27 28 28 29 30 31 31 31 31 31 31 31 31 31 31 31 30 30 29 28 28 28 28 28 28 28 28 29 29 29 29 28 28 28 28 28 28
23 24 24 23 23 22 22 22 22 23 23 23 24 24 24 23 24 23 23 23 23 23 23 23 22 21 21 21 22 21 20 20 21 22 22 22 23 23 23 24 24 25 25 25 25 25 25 26 27 28 29 30 31 31 31 31 31 31 30 30 30 30 30 30 29 29 28 27 28 27 27 26 27 27 28 28 28 28 27 27 27 27 27 27 27
23 24 25 24 23 22 22 22 22 23 23 23 24 24 24 24 24 23 23 23 24 23 23 22 20 20 20 21 21 21 20 20 21 21 22 22 22 22 23 24 24 25 25 25 25 26 27 27 28 29 30 30 31 31 31 30 30 30 30 30 30 29 29 28 28 28 27 27 27 26 26 26 26 27 27 26 26 26 25 25 26 26 26 26 27
25 25 25 24 23 23 23 23 23 23 23 23 24 24 24 24 23 23 23 24 24 23 22 21 20 20 21 22 22 21 20 20 21 21 21 21 22 22 22 23 24 24 24 25 25 26 27 27 28 29 30 30 30 30 30 29 29 29 29 28 28 28 28 28 27 27 27 27 26 25 25 25 26 25 25 25 25 25 24 25 25 26 26 26 25
24 24 23 23 23 23 23 23 24 24 24 24 24 24 23 23 23 23 23 23 23 23 22 21 21 22 22 22 22 21 21 22 21 21 20 21 21 22 22 23 23 23 24 24 25 26 27 28 28 29 30 29 29 29 29 28 28 28 28 27 27 27 27 26 26 26 26 25 25 25 25 25 25 25 25 25 24 24 24 24 24 25 25 25 25
23 22 22 23 23 23 23 24 24 24 24 24 23 23 22 22 22 23 23 23 23 22 22 22 22 22 22 22 23 23 23 22 21 21 21 21 21 21 21 21 22 23 24 25 26 27 28 29 30 30 30 29 29 29 28 28 28 27 27 27 27 26 25 25 26 26 25 24 24 25 25 24 24 24 24 24 24 24 24 24 24 24 24 24 24
22 23 23 24 23 23 24 24 24 24 24 23 22 22 22 22 22 23 23 23 22 22 21 21 22 22 22 22 22 23 22 21 21 21 21 20 20 20 21 21 22 23 24 25 27 28 30 30 31 30 30 29 28 28 28 28 27 27 26 26 26 26 25 25 25 24 24 25 25 25 24 24 24 24 24 24 24 23 23 23 23 23 24 24 24
23 24 24 24 23 23 24 24 24 23 22 22 22 22 22 22 22 22 23 23 22 21 21 21 22 22 22 22 22 22 21 21 21 20 20 20 20 21 21 22 23 24 25 27 29 30 30 30 30 29 28 28 28 28 28 28 27 27 26 26 26 25 25 24 24 24 25 26 25 24 24 24 24 24 24 24 23 23 23 23 23 23 23 23 23
24 24 24 23 23 23 23 22 22 21 21 21 22 22 22 22 22 22 22 22 22 21 21 21 22 22 22 22 22 21 21 21 21 21 21 21 21 22 22 23 25 26 27 28 29 29 29 30 29 28 28 28 28 28 28 28 27 26 26 26 25 25 24 24 24 25 26 25 24 24 23 23 23 23 23 23 22 22 22 22 22 23 23 23 23
24 23 22 22 22 22 21 21 21 21 21 21 21 21 21 22 21 21 21 21 21 21 21 21 21 21 22 22 21 21 21 22 22 22 22 22 22 23 24 25 26 27 28 28 28 28 29 29 29 28 28 28 28 27 27 26 26 26 26 25 25 24 24 24 25 25 24 24 24 24 23 23 23 23 22 22 22 22 22 22 22 22 23 23 23
22 21 20 20 20 20 20 20 20 21 20 20 20 21 21 21 21 20 20 20 21 20 20 20 21 21 21 21 21 21 22 22 22 22 23 23 23 24 25 26 27 27 27 27 27 28 28 28 27 27 27 27 26 26 26 26 25 25 25 25 24 23 23 24 24 24 23 23 23 23 22 22 22 22 22 21 21 21 21 21 22 22 23 23 23
19 19 18 18 19 19 19 20 20 20 20 20 20 20 20 21 21 20 20 20 20 20 20 20 20 20 20 21 21 22 22 22 22 23 23 24 24 25 26 26 26 26 26 26 26 26 26 26 26 26 26 26 25 25 25 25 25 25 25 24 23 23 24 24 24 23 23 23 23 22 22 21 21 21 21 21 21 21 21 21 22 22 22 23 23
18 18 18 18 19 19 19 19 19 19 19 19 20 20 20 20 20 20 20 19 19 19 20 20 20 20 20 21 21 22 22 22 23 23 24 25 25 26 26 26 26 26 26 26 25 25 24 24 24 25 24 24 24 25 25 25 25 25 24 24 23 23 23 23 23 23 23 22 21 21 21 20 20 20 20 20 21 21 21 21 22 22 22 22 22
18 18 18 18 19 19 19 19 19 19 19 19 20 20 20 20 20 20 19 19 19 19 20 20 20 21 21 21 22 22 23 23 23 24 24 25 25 25 25 25 25 26 25 25 24 24 23 23 23 23 23 23 23 24 24 24 24 24 23 23 23 22 22 22 22 21 21 20 20 20 19 19 19 19 20 20 20 21 21 21 21 21 21 22 21
19 19 19 19 19 19 19 20 20 20 20 20 20 20 20 19 20 20 20 20 20 20 20 21 21 22 22 22 22 23 23 24 24 25 25 25 25 25 25 24 25 25 24 23 23 23 22 22 22 22 22 22 22 23 23 23 23 23 23 22 22 22 22 21 20 20 19 19 19 19 19 19 18 19 19 19 20 21 21 21 21 21 21 21 21
20 19 19 20 20 20 20 20 20 20 20 20 20 20 20 20 20 21 21 21 21 21 21 21 22 22 22 22 22 23 23 24 24 25 24 24 24 23 23 24 24 24 23 22 21 21 21 21 21 21 21 21 21 21 21 21 22 22 22 22 21 21 20 20 19 19 18 18 18 18 18 18 18 18 19 19 20 20 21 20 20 20 20 20 20
20 19 20 20 20 20 20 20 20 20 20 20 20 20 20 21 21 21 21 21 21 21 21 22 22 22 22 21 22 23 23 24 24 24 23 22 22 22 22 22 22 21 20 20 20 20 19 20 20 20 20 20 20 20 20 20 20 20 20 20 20 20 19 19 18 18 17 17 17 17 17 17 18 18 19 19 20 20 20 19 19 19 19 19 19
20 20 20 20 20 20 20 20 20 20 20 20 21 21 21 21 21 21 22 22 22 21 22 22 22 22 21 21 22 23 23 23 23 23 22 21 21 21 21 20 20 19 19 19 19 19 19 19 19 19 19 18 18 19 19 19 19 19 19 19 19 18 18 17 17 16 16 16 16 16 16 17 17 18 18 18 19 19 19 19 19 19 19 18 18
20 20 20 20 20 20 20 20 20 20 20 20 20 20 20 21 21 21 21 21 21 21 21 21 21 21 21 21 22 23 23 23 22 22 21 21 20 19 18 18 18 17 17 17 18 18 18 18 17 17 17 16 16 17 18 18 18 18 18 18 17 17 16 16 16 15 15 15 15 16 16 16 17 17 17 18 18 18 18 18 18 18 18 18 18
20 20 20 20 20 20 19 19 19 19 19 19 19 19 20 20 21 21 21 21 20 20 21 22 21 21 21 21 22 22 22 22 22 21 20 19 18 18 17 17 16 16 16 17 17 16 16 16 16 15 15 14 15 15 16 16 17 17 17 16 16 15 15 15 14 14 14 15 15 15 15 16 16 16 17 17 17 18 18 18 18 18 18 17 17
20 19 19 19 19 19 18 18 18 18 18 19 19 20 20 20 20 20 20 20 20 20 21 21 21 21 21 21 21 21 21 21 20 19 18 17 17 17 16 16 16 16 16 16 16 15 14 15 15 14 14 14 14 14 15 15 16 16 15 15 14 14 14 14 14 14 14 15 15 15 15 15 16 16 16 17 17 17 17 17 17 17 17 17 16
19 19 18 18 18 18 18 18 18 18 19 19 19 19 19 19 19 19 19 19 19 20 20 21 21 21 20 20 20 20 19 19 18 17 16 16 17 16 16 16 16 15 15 14 14 13 13 14 14 14 14 14 14 14 14 14 15 15 15 14 14 14 13 13 14 14 14 14 15 15 15 15 15 15 16 16 16 16 16 16 16 16 16 16 16
18 18 18 18 18 18 18 18 18 19 19 19 19 19 19 18 18 19 19 19 19 19 20 20 20 20 19 18 18 18 17 17 16 16 16 16 16 16 15 15 15 15 14 14 13 13 13 14 14 14 15 14 14 14 14 14 14 14 14 14 13 13 13 13 14 14 14 14 14 15 15 15 14 14 14 14 14 15 15 15 16 16 16 15 15
17 18 18 18 18 18 18 18 18 18 19 19 19 19 18 18 18 19 18 18 19 20 20 19 19 18 18 18 18 17 16 16 16 16 16 16 15 15 15 14 14 14 14 14 13 13 13 14 15 15 15 15 15 14 15 14 14 14 13 13 12 12 13 13 14 14 14 14 14 14 14 14 13 13 13 13 14 14 14 15 15 15 15 14 14
17 17 17 17 18 18 18 17 18 18 18 18 18 18 18 18 18 18 18 18 19 19 19 18 17 17 17 17 17 17 16 16 16 16 16 15 15 15 15 14 14 14 13 14 14 14 14 14 15 15 15 15 15 15 15 14 14 14 13 12 12 12 13 13 14 14 14 14 14 14 13 13 12 12 13 13 13 13 14 14 14 14 14 13 13
16 17 17 17 17 17 17 17 18 18 17 17 17 18 18 18 18 17 17 18 19 18 17 17 16 16 16 16 15 16 16 16 16 16 16 15 15 15 15 15 14 14 13 14 15 15 15 15 16 15 15 15 15 15 15 15 14 13 13 12 12 13 13 14 14 14 14 14 14 13 13 12 12 12 12 12 12 13 13 13 14 14 14 13 12
16 16 16 16 16 17 17 17 17 16 16 17 17 17 18 18 17 16 17 17 17 17 16 16 16 16 16 16 16 16 16 16 16 16 15 15 15 15 15 15 15 14 14 15 16 16 16 16 16 16 16 16 16 16 16 15 14 13 13 13 13 13 14 14 14 14 14 14 14 13 12 11 11 12 12 12 12 12 13 13 13 14 13 12 12
Wind_Direction
228 229 229 229 230 230 232 234 237 240 243 246 249 252 254 256 258 261 263 265 267 268 269 270 272 274 276 278 281 283 286 289 288 286 287 291 294 296 296 294 289 284 282 280 279 281 283 284 285 284 285 285 285 286 286 287 288 288 288 289 289 290 290 291 292 291 292 293 294 296 297 297 297 297 296 295 294 293 292 291 291 290 288 288 288
228 228 228 228 228 229 232 234 237 240 243 247 250 253 256 258 260 262 264 267 268 269 270 271 273 274 275 277 280 281 283 286 285 281 281 286 291 293 293 292 290 285 281 279 278 280 282 283 284 285 285 284 284 285 287 288 289 288 288 289 289 290 291 291 291 290 292 294 295 296 297 297 297 297 297 296 296 295 293 292 291 289 288 288 288
227 227 227 227 228 230 233 236 238 240 243 247 250 253 256 259 261 263 265 267 269 270 271 271 272 273 276 278 279 280 281 283 282 275 274 281 287 291 291 292 291 286 281 279 277 279 282 283 284 285 285 285 284 285 287 287 288 290 290 291 291 291 292 291 289 288 290 293 294 295 297 297 296 296 296 297 297 296 294 293 292 290 288 289 289
225 226 226 226 228 231 234 237 239 242 245 248 251 253 257 260 262 263 265 267 269 270 271 271 272 274 277 278 279 279 280 282 281 273 269 276 285 287 289 291 292 288 282 278 275 277 280 281 283 284 284 285 285 286 288 288 289 291 292 293 292 293 294 292 289 288 290 292 294 296 297 298 297 296 295 296 296 295 293 293 292 290 289 289 289
224 225 226 228 230 232 235 238 241 243 247 250 252 254 257 260 263 264 266 267 269 271 271 271 273 274 276 277 277 277 277 279 280 273 269 276 282 284 285 288 291 288 281 277 274 275 278 279 281 283 284 284 285 286 288 289 291 292 292 293 293 294 294 293 292 292 292 294 296 298 298 299 298 297 296 296 296 295 294 293 292 291 290 290 289
223 224 227 230 232 234 236 239 242 245 248 251 253 256 258 262 264 265 267 269 270 272 272 273 273 273 274 276 276 276 274 275 275 271 271 277 281 282 282 284 287 285 279 275 274 274 277 278 280 282 282 282 283 284 286 289 291 292 293 293 294 296 296 294 294 294 294 295 297 299 299 299 299 298 297 296 295 295 294 293 293 291 290 290 290
223 224 227 230 232 235 238 241 244 247 249 252 254 256 260 263 264 266 269 270 271 273 274 274 273 273 274 275 275 275 273 272 271 270 272 277 280 281 280 281 284 283 277 275 274 273 276 278 279 280 280 280 281 283 286 288 290 291 292 293 294 296 297 296 296 296 296 297 298 299 299 299 299 298 297 296 295 295 295 294 293 292 291 290 290
223 224 226 228 232 236 240 243 246 248 250 253 255 258 261 264 265 267 270 272 272 274 274 274 274 274 274 274 275 274 271 270 271 271 271 273 276 279 278 278 282 282 276 273 273 273 275 276 276 277 277 278 280 283 286 289 290 291 292 294 295 296 296 297 297 298 298 298 298 299 299 299 298 298 297 297 296 295 296 295 294 293 292 291 290
221 223 225 228 233 238 242 245 248 250 252 255 257 260 263 266 267 269 272 273 273 274 274 274 273 272 272 273 273 272 270 270 271 271 270 271 273 277 277 277 280 279 274 272 272 272 273 274 274 275 276 278 280 283 287 289 290 291 293 294 294 295 296 297 297 297 297 298 299 300 300 300 299 298 298 297 296 296 296 295 293 293 293 292 292
220 223 227 230 235 239 242 246 249 251 254 257 260 264 267 269 271 273 274 275 275 275 274 274 274 271 270 270 270 270 269 269 270 269 269 270 272 276 278 277 277 276 272 271 272 271 271 272 273 275 277 279 281 284 288 290 289 290 293 295 294 295 296 296 296 296 297 298 300 301 301 300 299 299 298 297 296 296 295 294 294 294 294 293 293
222 225 229 232 236 239 243 248 251 254 257 260 263 266 270 273 274 275 277 277 277 277 276 275 274 272 270 268 267 268 267 268 268 267 267 269 271 274 277 277 276 274 271 271 272 271 270 270 272 275 277 279 282 286 289 290 290 291 293 295 296 297 296 296 295 295 296 298 300 301 300 299 299 299 298 298 297 296 295 294 294 294 294 294 294
224 227 230 233 237 241 246 250 254 257 260 263 266 268 272 275 276 276 278 280 281 280 278 276 275 273 271 268 267 267 266 266 266 266 266 268 269 272 276 277 277 273 270 271 271 269 269 269 271 276 279 281 284 288 290 291 291 291 293 296 298 298 297 296 296 296 296 298 300 300 299 299 299 299 298 298 297 296 295 295 294 294 294 294 294
227 230 232 236 240 244 248 252 256 259 262 264 267 270 273 276 277 278 280 283 284 283 280 278 275 272 271 270 268 267 267 265 265 265 265 266 268 272 275 277 275 271 269 271 270 268 267 268 271 277 281 283 287 291 293 293 292 292 294 297 299 299 297 297 296 295 296 298 299 298 298 298 298 298 298 297 296 296 296 295 295 295 295 294 294
230 232 234 238 242 246 250 253 256 259 262 265 268 271 274 276 278 281 283 285 285 285 282 279 275 273 272 271 269 267 266 265 265 265 264 264 268 273 275 275 272 269 268 270 270 269 267 267 272 278 282 285 288 292 295 294 293 293 296 298 299 298 298 297 296 296 296 297 297 297 297 297 297 297 297 296 296 296 296 296 296 296 295 295 294
232 234 236 239 243 246 250 253 257 260 262 265 269 271 274 278 281 284 286 287 287 286 283 279 276 274 272 270 268 266 266 265 266 266 264 264 268 274 274 272 269 268 268 269 270 270 267 269 275 280 282 286 289 292 294 295 294 296 297 298 298 298 299 299 298 297 297 296 296 296 297 297 297 296 296 296 296 296 296 296 296 296 296 295 294
232 235 237 240 243 246 249 252 256 260 263 266 269 272 276 280 284 287 289 290 289 287 283 280 277 274 271 269 267 266 267 267 266 265 263 264 269 272 271 268 266 267 268 269 270 269 268 271 278 281 283 286 288 291 294 295 295 296 297 297 298 299 299 299 298 297 296 296 296 297 297 297 296 296 296 296 296 297 297 296 297 297 296 296 295
232 234 237 240 243 245 248 252 256 260 263 266 270 276 280 283 286 289 290 291 290 287 284 280 277 274 272 269 268 267 266 265 264 263 263 264 268 270 268 265 265 266 268 269 270 269 270 273 278 282 284 286 289 292 294 295 296 296 296 297 298 299 299 299 298 297 296 296 297 298 297 297 296 296 296 296 297 297 297 297 298 298 297 296 295
232 234 236 239 242 246 250 254 258 261 264 268 272 278 282 285 289 290 291 291 291 287 284 282 279 276 274 271 269 267 265 262 261 261 262 264 267 268 265 264 266 267 268 269 270 270 272 275 279 282 284 287 289 292 294 295 296 296 296 297 298 299 299 300 300 299 298 298 298 298 297 296 296 296 296 296 296 297 296 296 297 297 296 295 295
232 234 236 239 243 248 252 255 259 262 266 270 274 279 283 286 290 291 291 292 292 288 285 283 281 279 277 273 270 268 266 264 261 260 262 264 266 266 265 266 267 267 267 269 270 271 274 278 281 283 285 288 290 292 294 295 295 296 296 297 297 298 300 300 300 300 300 299 299 299 298 297 297 297 297 297 296 296 296 295 296 296 295 295 296
232 234 237 240 245 250 254 257 260 264 269 272 276 280 284 287 290 291 291 292 291 288 285 283 281 280 278 275 273 271 270 267 263 261 262 263 263 264 266 267 267 267 268 269 270 272 277 281 282 284 286 288 290 292 294 294 295 296 296 296 297 298 300 300 300 300 300 299 299 299 299 298 298 298 299 299 298 298 297 296 296 296 295 296 297
233 235 238 242 246 251 255 259 263 267 271 274 278 282 285 287 288 289 291 292 290 286 284 283 281 280 278 276 274 273 271 269 266 262 261 262 262 264 267 268 268 268 269 270 272 276 279 282 284 286 288 289 291 292 293 294 295 296 296 296 298 298 299 299 300 300 299 299 299 299 299 299 299 300 300 300 300 300 299 298 298 297 297 297 297
234 237 240 244 248 252 257 262 266 271 273 276 280 284 286 287 287 288 290 291 287 284 284 283 281 280 279 277 276 275 273 270 266 261 259 261 263 265 268 270 269 268 269 272 275 279 281 283 286 288 290 290 291 292 293 294 295 295 296 298 298 298 298 299 299 299 299 299 298 298 299 299 300 300 300 300 299 299 300 299 298 297 297 297 297
235 238 241 245 251 256 260 264 269 272 274 275 280 284 286 286 285 286 289 288 285 284 283 282 280 279 278 277 277 278 276 270 265 262 262 264 266 268 269 270 270 269 271 274 279 282 283 285 287 290 291 291 292 293 294 295 295 295 296 297 298 298 298 299 298 298 298 298 298 298 299 300 300 300 300 299 299 299 299 299 298 298 297 297 296
237 240 245 250 255 260 264 267 271 273 274 275 279 283 284 284 284 286 286 285 284 284 282 280 278 277 277 278 278 277 274 268 266 267 268 269 269 269 269 269 269 270 273 278 282 284 285 286 288 290 291 292 293 294 295 295 295 295 296 296 297 298 298 298 298 298 298 298 297 298 299 300 300 300 300 299 300 300 300 299 299 298 298 298 297
240 244 251 255 259 263 267 269 272 273 274 276 279 281 282 282 283 284 284 282 282 283 281 280 278 277 277 278 278 275 272 269 270 272 271 271 271 270 269 269 269 273 277 281 284 285 286 287 288 289 290 292 294 295 296 295 295 295 296 296 297 297 297 297 298 298 297 297 297 298 300 300 301 300 300 300 301 301 301 300 299 299 299 299 299
243 249 255 258 260 264 267 270 272 274 275 276 279 280 281 282 283 283 282 281 282 282 281 280 278 277 279 278 276 275 274 273 274 274 273 273 272 270 269 270 271 275 279 282 285 286 287 288 289 290 292 294 295 295 296 295 294 294 296 297 297 297 297 297 298 297 297 297 298 299 300 300 301 301 301 301 301 301 301 300 300 301 301 301 301
248 254 259 261 262 264 266 269 271 274 276 277 279 280 282 283 282 281 281 281 282 282 281 279 278 278 279 277 274 276 276 275 275 276 275 275 274 271 270 271 273 276 279 282 285 287 288 289 290 292 294 295 295 296 295 294 294 295 296 296 297 298 298 298 298 297 297 297 298 298 299 300 301 301 301 301 301 301 301 301 302 303 303 303 303
254 259 261 261 262 263 266 269 272 275 277 279 280 281 282 282 280 280 281 282 282 280 279 279 279 279 278 275 274 275 277 276 277 278 277 276 275 273 273 274 276 278 281 284 286 288 289 290 292 294 296 296 296 295 295 294 294 295 295 295 296 297 297 297 297 296 296 297 297 298 299 300 300 301 301 302 302 302 302 302 302 304 305 305 304
257 260 261 260 261 264 267 270 273 275 277 279 280 281 281 280 280 281 282 283 283 280 278 279 280 279 278 277 275 275 277 277 278 278 278 278 277 276 276 278 279 281 284 286 287 288 289 291 292 293 294 294 293 293 293 293 294 294 293 294 296 298 298 297 297 297 297 297 297 298 299 299 299 300 301 302 303 303 303 303 303 304 305 305 305
258 260 260 261 262 265 268 270 272 275 277 277 277 278 279 281 281 281 281 282 283 281 279 278 279 279 278 277 277 277 278 278 278 278 279 281 281 280 281 283 284 284 285 287 288 289 290 292 293 293 293 292 292 293 293 294 295 295 294 294 296 296 296 297 297 297 296 296 297 298 298 298 298 299 301 302 303 304 304 304 304 304 305 306 307
259 259 260 261 263 265 267 270 272 275 276 275 274 275 277 280 281 281 281 281 280 279 278 277 277 278 277 276 277 278 279 279 279 279 280 281 281 282 283 284 285 286 286 287 289 291 292 292 293 293 293 293 292 293 294 296 297 297 296 296 296 295 295 296 297 296 295 296 297 297 297 297 297 299 300 302 303 303 303 304 304 305 306 307 308
259 260 261 262 263 265 268 270 272 273 273 273 274 275 276 277 278 279 280 279 277 277 277 277 277 277 277 275 275 276 277 278 279 280 280 281 281 282 283 284 285 286 288 289 291 292 293 293 293 292 292 292 293 293 295 296 297 297 296 296 296 295 296 297 296 294 294 296 297 296 296 296 297 298 300 302 302 302 303 304 305 305 306 307 309
261 262 263 263 264 266 268 270 270 272 273 274 274 275 275 275 276 277 277 276 275 275 276 277 276 276 275 275 275 275 276 277 279 280 281 281 282 282 284 286 287 289 290 291 292 292 292 292 291 291 291 293 294 295 296 296 296 296 296 296 296 295 295 295 294 293 294 295 295 295 296 296 297 299 300 301 301 302 303 303 304 305 307 308 309
262 262 262 262 263 264 266 267 269 272 274 274 274 275 274 275 276 275 274 273 273 273 275 276 276 276 275 275 275 276 277 278 279 280 281 281 282 284 286 288 289 291 291 291 291 292 292 291 291 291 293 294 295 296 297 297 296 296 296 296 295 295 294 293 293 294 294 294 295 296 296 297 298 299 299 300 301 302 302 303 304 306 307 308 309
259 258 258 259 261 263 266 268 271 273 273 273 274 275 274 275 276 276 275 273 273 273 274 275 276 276 275 275 276 277 278 279 279 280 281 282 283 284 287 289 290 291 291 291 291 292 292 292 292 293 294 295 295 295 296 297 296 296 295 294 294 294 293 293 293 294 294 295 296 296 296 297 297 298 298 299 301 302 302 303 304 306 307 308 309
256 256 257 259 262 266 268 270 272 274 273 273 274 275 275 276 276 276 276 275 275 275 275 274 274 274 274 275 276 277 278 278 279 281 283 283 284 285 288 290 291 291 291 292 292 292 291 292 293 294 294 295 296 296 296 296 295 295 295 294 294 293 293 293 293 293 294 295 295 296 296 296 297 297 298 299 301 301 302 304 305 306 306 307 307
256 257 259 263 266 267 268 270 272 272 272 273 274 276 276 276 276 277 276 275 276 276 274 272 272 273 273 274 275 276 277 279 281 283 284 285 286 287 289 290 290 291 292 292 292 292 292 292 293 294 294 295 296 296 296 296 295 295 295 294 293 292 292 292 293 294 294 294 295 295 296 296 296 298 299 300 301 302 303 305 305 305 305 306 306
258 259 261 264 267 267 268 269 270 270 270 272 274 275 275 275 276 276 276 275 276 277 275 272 271 272 273 273 274 276 277 279 281 283 284 285 286 287 287 289 290 291 292 292 291 292 293 294 295 295 296 296 296 297 297 296 295 295 295 294 294 293 292 293 294 294 294 295 295 295 296 296 297 298 299 300 302 303 305 306 306 305 305 306 306
259 259 260 263 266 267 268 269 269 269 270 272 274 274 274 274 274 275 275 275 276 277 276 274 273 274 274 274 275 276 277 279 281 283 285 286 286 286 285 287 289 290 291 292 292 293 294 294 295 296 296 296 297 298 298 297 296 296 296 296 296 295 294 293 294 294 294 295 295 295 296 297 297 299 300 301 303 304 305 306 306 306 306 306 306
259 259 259 262 265 267 268 269 270 271 271 272 273 273 273 273 274 275 276 276 276 276 277 276 275 275 275 275 275 276 278 280 282 284 286 287 286 284 284 286 288 289 290 291 293 294 294 295 296 297 297 298 299 299 298 298 298 298 298 298 297 296 295 294 294 294 295 295 296 296 296 297 298 300 301 302 303 305 305 305 306 306 306 306 306
259 260 261 263 266 267 268 269 270 271 271 272 273 273 273 274 275 276 277 277 277 277 277 277 276 275 274 274 275 276 280 283 284 285 286 285 283 283 284 286 289 290 290 291 293 293 294 296 298 298 299 300 301 301 300 301 300 300 300 299 298 297 296 295 295 295 295 295 296 296 297 298 300 302 302 303 304 305 305 306 306 307 306 307 307
260 262 263 264 266 268 269 269 270 270 270 271 272 273 273 274 275 276 277 277 277 277 276 277 277 275 274 275 276 278 280 284 285 284 283 283 283 283 284 287 289 291 291 292 293 294 295 296 298 299 300 301 302 303 303 303 303 303 302 302 300 299 298 297 297 296 296 296 296 297 298 300 302 303 303 304 304 306 306 306 307 307 307 308 308
260 262 263 264 265 267 268 268 269 270 270 271 273 273 274 275 276 277 277 277 277 277 276 277 278 278 276 277 279 280 280 282 283 282 281 282 284 284 285 286 288 289 290 291 293 294 296 297 298 299 301 303 305 307 307 307 306 306 305 304 303 302 300 298 298 298 297 297 297 299 301 302 303 304 304 305 306 307 307 307 307 308 307 307 308
261 262 263 262 263 265 267 267 268 268 269 271 272 273 274 275 275 276 276 276 277 277 277 278 280 280 278 279 281 280 278 278 280 281 280 281 282 282 283 285 287 288 290 292 293 294 296 298 299 300 302 305 308 310 310 310 309 308 308 307 305 304 302 301 300 299 298 298 299 301 303 304 305 305 305 306 307 307 307 308 308 308 308 308 308
261 261 261 262 263 264 265 266 267 267 269 271 272 273 274 274 274 275 276 277 278 279 280 280 281 280 279 280 280 278 276 276 279 280 278 278 279 279 280 283 286 288 289 291 293 294 296 299 300 301 302 304 307 310 312 312 312 311 309 308 307 306 305 303 301 299 299 299 301 303 304 305 305 306 307 308 309 309 309 310 310 310 310 309 309
259 259 259 261 262 264 265 266 268 268 269 270 272 273 274 274 275 277 278 278 278 279 280 281 281 280 279 279 278 276 274 274 276 276 275 275 277 277 277 280 284 286 288 290 293 295 297 299 301 301 302 304 306 308 310 313 314 313 311 309 307 307 306 304 302 302 301 301 303 304 304 305 306 307 308 310 311 311 312 312 313 313 313 311 310
258 259 260 261 262 263 265 266 267 268 269 270 271 272 272 274 275 276 277 277 278 278 278 280 280 280 279 278 276 273 272 272 273 273 273 273 275 275 276 278 280 283 287 291 293 295 296 298 300 301 302 303 305 306 308 311 313 313 313 312 309 308 308 307 305 304 304 304 305 306 306 306 307 308 310 312 313 314 314 315 316 316 315 313 311
258 259 260 260 261 262 264 264 265 266 268 270 271 272 273 274 275 275 274 275 277 277 277 277 278 278 277 276 274 272 270 270 271 272 272 271 271 271 273 276 278 281 285 289 291 292 295 298 300 301 301 301 302 303 305 307 308 310 312 312 310 311 312 311 309 307 305 306 306 306 306 307 308 309 312 314 315 316 317 318 319 320 318 315 314
257 258 258 258 260 262 263 264 265 267 269 271 272 272 272 272 273 273 273 274 277 278 277 277 277 276 275 274 272 270 269 270 270 270 268 267 266 268 270 273 276 278 283 287 289 291 293 297 299 300 299 298 299 300 302 303 304 305 307 307 309 312 313 312 310 309 309 308 307 307 306 306 307 309 312 314 317 319 321 322 323 323 321 318 316
257 257 257 258 260 261 263 265 266 268 269 270 270 270 270 271 272 274 275 276 277 277 277 277 276 276 274 273 272 271 271 272 271 269 265 264 264 265 267 270 273 276 281 285 289 292 294 296 298 299 298 297 297 298 299 300 301 300 300 302 306 310 312 311 310 311 311 310 308 307 306 305 306 309 312 314 317 320 323 325 326 325 323 320 318
256 257 257 258 260 261 263 265 266 267 268 269 270 271 272 272 273 274 275 275 275 275 275 275 275 275 274 273 274 274 273 272 271 268 265 263 263 263 264 267 271 275 279 284 288 290 292 294 297 298 297 296 296 296 297 297 297 295 295 297 301 305 307 308 309 310 311 311 309 306 303 303 305 307 309 312 315 319 322 325 327 326 325 322 320